This demonstration page uses our WeatherBlox Daily Observations layout. Learn more.

Left ArrowRight Arrow

41.55636, -103.73856

Hourly Observations for September 29, 2015

Temp ( °F °C ) Dew Point ( °F °C ) Humidity (%) Winds ( mph kmh ) Pressure ( in mb ) Visibility ( mi km ) Precip ( " mm )
12:53 am 00:53 Cloudy 59 15 54 12.2 83 83 SE 6 9 30.07 1018 10 16.0934 0 0
1:53 am 01:53 Cloudy 59 15 54 12.2 83 83 SSE 6 9 30.07 1018 10 16.0934 0 0
2:53 am 02:53 Cloudy 58 14.4 52 11.1 81 81 SE 8 13 30.06 1018 10 16.0934 0 0
3:26 am 03:26 Cloudy 57 14 52 11 82 82 E 9 15 30.03 1017 10 16.0934 0 0
3:53 am 03:53 Cloudy 57 13.9 52 11.1 83 83 ESE 7 11 30.06 1018 10 16.0934 0 0
4:15 am 04:15 Cloudy 57 13.9 53 11.7 87 87 SE 6 9 30.03 1017 10 16.0934 0 0
4:53 am 04:53 Cloudy 57 13.9 52 11.1 83 83 SE 7 11 30.08 1019 10 16.0934 0 0
5:11 am 05:11 Cloudy 57 13.9 52 11.1 83 83 SE 10 17 30.06 1018 10 16.0934 0 0
5:53 am 05:53 Cloudy 57 13.9 51 10.6 81 81 ESE 12 19 30.09 1019 10 16.0934 0 0
6:48 am 06:48 Cloudy 55 13 52 11 88 88 E 12 19 30.09 1019 10 16.0934 0 0
6:53 am 06:53 Cloudy 56 13.3 51 10.6 84 84 E 12 19 30.11 1020 10 16.0934 0 0
7:35 am 07:35 Cloudy 55 12.8 51 10.6 87 87 E 13 20 30.12 1020 10 16.0934 0 0
7:53 am 07:53 Cloudy 55 12.8 51 10.6 87 87 E 13 20 30.14 1021 10 16.0934 0 0
8:27 am 08:27 Cloudy 56 13.3 51 10.6 84 84 ESE 13 20 30.12 1020 10 16.0934 0 0
8:40 am 08:40 Cloudy 55 13 52 11 88 88 ESE 14 22 30.12 1020 10 16.0934 0 0
8:51 am 08:51 Cloudy 55 13 52 11 88 88 SE 10 17 30.12 1020 10 16.0934 0 0
8:53 am 08:53 Cloudy 56 13.3 51 10.6 84 84 SE 10 17 30.13 1020 10 16.0934 0 0
9:53 am 09:53 Cloudy 58 14.4 51 10.6 78 78 SE 12 19 30.14 1021 10 16.0934 0 0
10:53 am 10:53 Cloudy 59 15 51 10.6 75 75 ESE 10 17 30.13 1020 10 16.0934 0 0
11:53 am 11:53 Cloudy 62 16.7 52 11.1 70 70 ESE 10 17 30.11 1020 10 16.0934 0 0
12:41 pm 12:41 Cloudy 66 18.9 53 11.7 63 63 ESE 15 24 30 1016 10 16.0934 0 0
12:53 pm 12:53 Cloudy 67 19.4 53 11.7 61 61 SE 15 24 30.07 1018 10 16.0934 0 0
1:53 pm 13:53 Mostly Sunny 71 21.7 53 11.7 53 53 SE 16 26 30.02 1017 10 16.0934 0 0
2:53 pm 14:53 Mostly Sunny 73 22.8 51 10.6 46 46 SSE 15 24 30 1016 10 16.0934 0 0
3:53 pm 15:53 Sunny 72 22.2 51 10.6 48 48 SE 20 31 29.98 1015 10 16.0934 0 0
4:53 pm 16:53 Sunny 72 22.2 51 10.6 48 48 SE 15 24 29.97 1015 10 16.0934 0 0
5:53 pm 17:53 Sunny 67 19.4 52 11.1 59 59 SE 14 22 29.99 1016 10 16.0934 0 0
6:53 pm 18:53 Mostly Clear 63 17.2 52 11.1 68 68 ESE 15 24 30.01 1016 10 16.0934 0 0
7:53 pm 19:53 Cloudy with Light Rain 59 15 54 12.2 83 83 E 13 20 30.07 1018 9 14.48406 0.03 0.762
8:53 pm 20:53 Mostly Clear 57 13.9 56 13.3 96 96 SE 18 30 30.05 1018 10 16.0934 0.03 0.762
9:53 pm 21:53 Mostly Cloudy with Nearby Thunderstorms 57 13.9 54 12.2 90 90 E 7 11 30.07 1018 10 16.0934 0 0.0254
10:24 pm 22:24 Mostly Cloudy with Light Rain 55 13 54 12 94 94 SE 16 26 30.03 1017 10 16.0934 0 0
10:32 pm 22:32 Partly Cloudy 55 13 54 12 94 94 SSE 14 22 30.03 1017 10 16.0934 0 0
10:50 pm 22:50 Partly Cloudy with Nearby Thunderstorms 55 13 54 12 94 94 S 15 24 30.03 1017 10 16.0934 0 0
10:53 pm 22:53 Mostly Cloudy with Nearby Thunderstorms 57 13.9 54 12.2 90 90 S 14 22 30.04 1017 10 16.0934 0 0.0254
11:05 pm 23:05 Mostly Cloudy with Light Rain 57 13.9 54 12.2 90 90 SE 9 15 30.03 1017 10 16.0934 0 0.0254
11:19 pm 23:19 Mostly Cloudy 57 13.9 53 11.7 87 87 SSE 9 15 30.03 1017 10 16.0934 0.01 0.254
11:46 pm 23:46 Mostly Cloudy 57 14 54 12 88 88 SE 7 11 30.03 1017 10 16.0934 0 0
11:53 pm 23:53 Mostly Cloudy 56 13.3 53 11.7 90 90 ESE 8 13 30.03 1017 10 16.0934 0.01 0.254

Powered by AerisWeather